Regional Weather Roundup
Issued by NWS Midland/Odessa, TX

Skip options and go directly to product.
Home | Oldest Version | Previous Version | Current Version | All | Text Only | Save Text | Print | Product List | Glossary On

Skip product version selection by date and time.   
334
ASUS44 KMAF 191410
RWRMAF
MIDLAND AREA WEATHER ROUNDUP
NATIONAL WEATHER SERVICE MIDLAND TX
900 AM CDT SAT APR 19 2014

...IN SOUTHWEST TEXAS AND SOUTHEAST NEW MEXICO...

CITY           SKY/WX    TMP DP  RH WIND       PRES   REMARKS
ALPINE         PTSUNNY   59  48  66 S6        30.18R
ANDREWS        PTSUNNY   59  47  66 SE7       30.10R
ARTESIA        PTSUNNY   57  54  88 SE8       30.07R
BIG SPRING     CLOUDY    64  54  69 SE14      30.14R
CARLSBAD       CLOUDY    58  54  86 S3        30.08R
DRYDEN           N/A     72  58  61 SE18G26   30.05F
FORT STOCKTON  CLOUDY    61  52  72 SE14      30.08R
GUAD PASS      NOT AVBL
HOBBS          PTSUNNY   59  48  67 E12       30.10R
MARFA          PTSUNNY   57  45  62 E8        30.14S
MIDLAND AIRPK  CLOUDY    61  51  69 SE13G22   30.10S
MIDLAND INTL   CLOUDY    60  50  69 SE16      30.10R
ODESSA         PTSUNNY   60  50  69 SE12      30.10R
PECOS          CLOUDY    60  48  65 CALM      30.06R
PRESIDIO       FAIR      69  50  51 NE12G18   30.03S
SEMINOLE       PTSUNNY   55  45  68 SE8       30.11S
SNYDER         PTSUNNY   59  53  80 SE12      30.14R
WINK           PTSUNNY   63  52  67 SE21G26   30.04S
$$
...OTHER STATIONS IN TEXAS...

CITY           SKY/WX    TMP DP  RH WIND       PRES   REMARKS
ABILENE        MOSUNNY   62  52  69 S12       30.15R
AMARILLO       CLOUDY    54  43  66 S17       30.11R
AUSTIN         PTSUNNY   61  56  83 CALM      30.18R FOG
BROWNSVILLE    MOSUNNY   69  66  90 E8        30.11S
CORPUS CHRISTI PTSUNNY   69  61  75 E7        30.14R
DALLAS FTW     MOSUNNY   65  55  70 S6        30.18R
DEL RIO        CLOUDY    66  52  60 E9        30.11R
EL PASO        LGT RAIN  62  49  62 NW5       30.06R
HOUSTON INT    PTSUNNY   65  58  78 NE3       30.19R
LUBBOCK        PTSUNNY   56  46  69 S14       30.11S
SAN ANGELO     PTSUNNY   63  53  70 S15G21    30.14R
SAN ANTONIO    PTSUNNY   63  57  81 CALM      30.17R
WACO           MOSUNNY   59  54  83 CALM      30.18R
WICHITA FALLS  NOT AVBL
$$
...OTHER LOCATIONS IN NEW MEXICO...

CITY           SKY/WX    TMP DP  RH WIND       PRES   REMARKS
ALAMAGORDO     PTSUNNY   59  48  67 E6        30.10R
ALBUQUERQUE    PTSUNNY   54  38  54 NW5       30.13R
CANNON AFB     CLOUDY    54  44  70 SE10      30.11R
CLOVIS         CLOUDY    54  43  66 SE10      30.14R
HOLLOMAN AFB   PTSUNNY   59  48  68 E2        30.07R
ROSWELL        CLOUDY    58  51  78 SE9       30.06S
RUIDOSO        CLOUDY    48  41  76 CALM      30.19R
SANTA FE       SUNNY     48  42  80 CALM      30.16R
TRUTH OR CONSE CLOUDY    54  49  83 N5        30.10R
TUCUMCARI      LGT RAIN  60  46  59 W18       30.05S
$$

USA.gov is the U.S. government's official web portal to all federal, state and local government web resources and services.